Hourly Weather Ruchevaha

Today, 20 April, Tuesday

Time Temperature Precipitation Wind Pressure Humidity
00:00 +5°C° 0 mm 4 mps 745 mmHg 71%
01:00 +4°C° 0 mm 4 mps 744 mmHg 71%
02:00 +4°C° 0 mm 4 mps 744 mmHg 71%
03:00 +3°C° 0 mm 4 mps 744 mmHg 71%
04:00 +3°C° 0 mm 4 mps 744 mmHg 71%
05:00 +2°C° 0 mm 3 mps 744 mmHg 71%
06:00 +1°C° 0 mm 4 mps 743 mmHg 76%
07:00 +1°C° 0 mm 4 mps 743 mmHg 81%
08:00 0°C° 0 mm 4 mps 743 mmHg 86%
09:00 +1°C° 0.1 mm 4 mps 743 mmHg 83%
10:00 +3°C° 0.1 mm 4 mps 743 mmHg 81%
11:00 +4°C° 0.1 mm 4 mps 742 mmHg 78%
12:00 +4°C° 0.1 mm 4 mps 742 mmHg 77%
13:00 +5°C° 0.1 mm 4 mps 742 mmHg 75%
14:00 +5°C° 0.1 mm 4 mps 741 mmHg 74%
15:00 +5°C° 0 mm 4 mps 741 mmHg 76%
16:00 +5°C° 0 mm 4 mps 740 mmHg 78%
17:00 +4°C° 0 mm 4 mps 740 mmHg 80%
18:00 +4°C° 0.1 mm 4 mps 740 mmHg 83%
19:00 +3°C° 0.1 mm 3 mps 740 mmHg 86%
20:00 +2°C° 0.1 mm 3 mps 739 mmHg 90%
21:00 +2°C° 0 mm 3 mps 739 mmHg 91%
22:00 +3°C° 0 mm 2 mps 738 mmHg 92%
23:00 +3°C° 0 mm 2 mps 737 mmHg 94%

Tomorrow, 21 April, Wednesday

Time Temperature Precipitation Wind Pressure Humidity
00:00 +3°C° 0 mm 2 mps 737 mmHg 95%
01:00 +2°C° 0 mm 2 mps 736 mmHg 95%
02:00 +2°C° 0 mm 2 mps 735 mmHg 96%
03:00 +2°C° 0.7 mm 2 mps 734 mmHg 97%
04:00 +1°C° 0.7 mm 3 mps 733 mmHg 97%
05:00 +1°C° 0.7 mm 3 mps 733 mmHg 97%
06:00 +1°C° 1.3 mm 2 mps 732 mmHg 98%
07:00 +1°C° 1.3 mm 2 mps 732 mmHg 98%
08:00 +1°C° 1.3 mm 2 mps 731 mmHg 99%
09:00 +1°C° 0.6 mm 2 mps 731 mmHg 99%
10:00 +2°C° 0.6 mm 2 mps 731 mmHg 99%
11:00 +2°C° 0.6 mm 2 mps 731 mmHg 99%
12:00 +2°C° 0.3 mm 2 mps 731 mmHg 98%
13:00 +2°C° 0.3 mm 2 mps 731 mmHg 98%
14:00 +1°C° 0.3 mm 3 mps 731 mmHg 98%
15:00 +2°C° 0.1 mm 3 mps 732 mmHg 96%
16:00 +3°C° 0.1 mm 3 mps 732 mmHg 93%
17:00 +3°C° 0.1 mm 3 mps 732 mmHg 90%
18:00 +4°C° 0 mm 2 mps 732 mmHg 92%
19:00 +3°C° 0 mm 2 mps 733 mmHg 94%
20:00 +2°C° 0 mm 2 mps 733 mmHg 95%
21:00 +2°C° 0 mm 2 mps 733 mmHg 95%
22:00 +2°C° 0 mm 3 mps 734 mmHg 94%
23:00 +2°C° 0 mm 3 mps 734 mmHg 94%

Day after tomorrow, 22 April, Thursday

Time Temperature Precipitation Wind Pressure Humidity
00:00 +2°C° 0 mm 3 mps 734 mmHg 93%
01:00 +1°C° 0 mm 3 mps 734 mmHg 93%
02:00 +1°C° 0 mm 3 mps 734 mmHg 92%
03:00 +2°C° 0.1 mm 3 mps 734 mmHg 93%
04:00 +2°C° 0.1 mm 3 mps 735 mmHg 93%
05:00 +2°C° 0.1 mm 3 mps 735 mmHg 93%
06:00 +3°C° 0.1 mm 3 mps 735 mmHg 91%
07:00 +5°C° 0.1 mm 4 mps 735 mmHg 90%
08:00 +6°C° 0.1 mm 4 mps 735 mmHg 88%
09:00 +7°C° 0.1 mm 4 mps 736 mmHg 82%
10:00 +8°C° 0.1 mm 4 mps 736 mmHg 77%
11:00 +10°C° 0.1 mm 4 mps 736 mmHg 72%
12:00 +11°C° 0.3 mm 4 mps 736 mmHg 68%
13:00 +12°C° 0.3 mm 4 mps 736 mmHg 64%
14:00 +12°C° 0.3 mm 4 mps 737 mmHg 60%
15:00 +12°C° 0.2 mm 3 mps 737 mmHg 63%
16:00 +12°C° 0.2 mm 3 mps 737 mmHg 67%
17:00 +12°C° 0.2 mm 3 mps 737 mmHg 70%
18:00 +10°C° 0 mm 2 mps 737 mmHg 77%
19:00 +8°C° 0 mm 2 mps 737 mmHg 84%
20:00 +7°C° 0 mm 2 mps 738 mmHg 90%
21:00 +7°C° 0 mm 2 mps 738 mmHg 91%
22:00 +6°C° 0 mm 2 mps 738 mmHg 92%
23:00 +6°C° 0 mm 2 mps 738 mmHg 93%

23 April, Friday

Time Temperature Precipitation Wind Pressure Humidity
00:00 +6°C° 0 mm 2 mps 738 mmHg 93%
01:00 +5°C° 0 mm 2 mps 737 mmHg 93%
02:00 +5°C° 0 mm 2 mps 737 mmHg 93%
03:00 +5°C° 0 mm 2 mps 737 mmHg 92%
04:00 +5°C° 0 mm 3 mps 737 mmHg 90%
05:00 +5°C° 0 mm 3 mps 737 mmHg 89%
06:00 +6°C° 0 mm 4 mps 737 mmHg 87%
07:00 +7°C° 0 mm 4 mps 737 mmHg 86%
08:00 +10°C° 0 mm 4 mps 737 mmHg 84%
09:00 +8°C° 0.1 mm 4 mps 737 mmHg 85%
10:00 +8°C° 0.1 mm 4 mps 737 mmHg 87%
11:00 +9°C° 0.1 mm 3 mps 737 mmHg 88%
12:00 +9°C° 0.2 mm 3 mps 737 mmHg 88%
13:00 +9°C° 0.2 mm 2 mps 737 mmHg 88%
14:00 +9°C° 0.2 mm 2 mps 736 mmHg 88%
15:00 +8°C° 1.1 mm 2 mps 736 mmHg 89%
16:00 +7°C° 1.1 mm 3 mps 736 mmHg 91%
17:00 +5°C° 1.1 mm 3 mps 735 mmHg 93%
18:00 +5°C° 0.9 mm 3 mps 735 mmHg 93%
19:00 +4°C° 0.9 mm 3 mps 736 mmHg 94%
20:00 +4°C° 0.9 mm 3 mps 736 mmHg 94%
21:00 +3°C° 0.3 mm 3 mps 736 mmHg 94%
22:00 +3°C° 0.3 mm 3 mps 736 mmHg 94%
23:00 +3°C° 0.3 mm 3 mps 736 mmHg 94%

24 April, Saturday

Time Temperature Precipitation Wind Pressure Humidity
00:00 +2°C° 0 mm 3 mps 736 mmHg 94%
01:00 +2°C° 0 mm 3 mps 736 mmHg 94%
02:00 +2°C° 0 mm 3 mps 736 mmHg 93%
03:00 +1°C° 0 mm 3 mps 736 mmHg 94%
04:00 +2°C° 0 mm 2 mps 735 mmHg 94%
05:00 +2°C° 0 mm 2 mps 735 mmHg 95%
06:00 +2°C° 0 mm 2 mps 735 mmHg 92%
07:00 +3°C° 0 mm 2 mps 735 mmHg 88%
08:00 +3°C° 0 mm 3 mps 735 mmHg 85%
09:00 +3°C° 0.2 mm 3 mps 735 mmHg 85%
10:00 +3°C° 0.2 mm 3 mps 735 mmHg 85%
11:00 +3°C° 0.2 mm 3 mps 735 mmHg 85%
12:00 +3°C° 0.5 mm 3 mps 735 mmHg 84%
13:00 +3°C° 0.5 mm 3 mps 735 mmHg 84%
14:00 +3°C° 0.5 mm 3 mps 735 mmHg 84%
15:00 +3°C° 0.5 mm 3 mps 735 mmHg 86%
16:00 +2°C° 0.5 mm 3 mps 736 mmHg 88%
17:00 +1°C° 0.5 mm 4 mps 736 mmHg 90%
18:00 +1°C° 0.1 mm 3 mps 736 mmHg 90%
19:00 0°C° 0.1 mm 3 mps 736 mmHg 91%
20:00 +1°C° 0.1 mm 2 mps 737 mmHg 91%
21:00 -1°C° 0 mm 2 mps 737 mmHg 90%
22:00 -1°C° 0 mm 2 mps 737 mmHg 89%
23:00 -2°C° 0 mm 2 mps 737 mmHg 89%

25 April, Sunday

Time Temperature Precipitation Wind Pressure Humidity
00:00 -2°C° 0 mm 2 mps 737 mmHg 89%
01:00 -2°C° 0 mm 2 mps 736 mmHg 89%
02:00 -2°C° 0 mm 2 mps 736 mmHg 88%
03:00 -2°C° 0 mm 2 mps 736 mmHg 88%
04:00 -2°C° 0 mm 2 mps 736 mmHg 88%
05:00 -2°C° 0 mm 2 mps 736 mmHg 88%
06:00 -1°C° 0 mm 2 mps 736 mmHg 86%
07:00 +1°C° 0 mm 3 mps 735 mmHg 85%
08:00 +1°C° 0 mm 4 mps 735 mmHg 83%
09:00 +1°C° 0.4 mm 4 mps 735 mmHg 87%
10:00 +1°C° 0.4 mm 3 mps 735 mmHg 91%
11:00 +1°C° 0.4 mm 3 mps 735 mmHg 95%
12:00 +2°C° 0.5 mm 3 mps 734 mmHg 92%
13:00 +2°C° 0.5 mm 3 mps 734 mmHg 89%
14:00 +3°C° 0.5 mm 2 mps 734 mmHg 86%
15:00 +2°C° 0.3 mm 3 mps 734 mmHg 86%
16:00 +2°C° 0.3 mm 3 mps 734 mmHg 85%
17:00 +2°C° 0.3 mm 3 mps 734 mmHg 84%
18:00 +1°C° 0.1 mm 3 mps 734 mmHg 88%
19:00 +1°C° 0.1 mm 3 mps 734 mmHg 92%
20:00 +1°C° 0.1 mm 2 mps 734 mmHg 96%
21:00 +1°C° 0.3 mm 2 mps 734 mmHg 96%
22:00 +2°C° 0.3 mm 1 mps 734 mmHg 97%
23:00 +2°C° 0.3 mm 1 mps 733 mmHg 97%
Show more